Location: Catstown
(52.4386°N, 7.2633°W)
Time: 04:50:25
(UTC+00:00)

Cosmos 2151 Rocket - Pass Details

Date: 18 September 2020
Orbit: 618 x 642 km, 82.5° (Epoch: 20 October)

Event Time Altitude Azimuth Distance (km) Brightness Sun altitude
Rises 20:22:43 0° 186° (S) 2,905 6.8 -16.5°
Reaches altitude 10° 20:24:56 10° 186° (S) 2,006 6.0 -16.8°
Maximum altitude 20:29:24 83° 98° (E) 646 3.5 -17.4°
Drops below altitude 10° 20:33:55 10° 12° (NNE) 2,037 6.4 -18.0°
Sets 20:36:11 0° 12° (NNE) 2,954 7.3 -18.4°
